FATTY76 LPLA-KTPA

Flight info

Callsign FATTY76
Flight time N/A
Altitude 34000
Route TIMTO DCT 38N034W 37N041W/M080F360 36N048W 34N054W DCT NUMBR/M080F370 DCT NUMBR/M080F380 M328 BDA M327 LITTL M326 PADRK M203 SNAGY/N0459F380 M203 ADOOR M202 HOBEE AR6 HIBAC DADES2
Aircraft B752/M-SDE2E3FGHIJ3J4J7RWXY/LB1

Departure

Time 2026-04-29 07:32
Airport Lajes Airport (LPLA)

Arrival

Time N/A
Airport Tampa International Airport (KTPA)
Time Latitude Longitude Altitude Speed Heading
2026-04-29 07:32 38.69257 -27.03870 5157 ft 259 kts 193°
2026-04-29 07:32 38.67594 -27.04792 6238 ft 271 kts 214°
2026-04-29 07:32 38.66081 -27.06246 7268 ft 284 kts 214°
2026-04-29 07:33 38.64476 -27.07760 8289 ft 296 kts 214°
2026-04-29 07:33 38.62796 -27.09354 9317 ft 306 kts 214°
2026-04-29 07:33 38.61092 -27.10973 10326 ft 314 kts 214°
2026-04-29 07:33 38.59315 -27.12660 11345 ft 321 kts 214°
2026-04-29 07:34 38.57516 -27.14371 12355 ft 327 kts 213°
2026-04-29 07:34 38.55687 -27.16108 13366 ft 332 kts 213°
2026-04-29 07:34 38.53841 -27.17860 14364 ft 336 kts 213°
2026-04-29 07:34 38.51961 -27.19646 15354 ft 339 kts 213°
2026-04-29 07:35 38.50064 -27.21446 16340 ft 341 kts 212°
2026-04-29 07:35 38.48154 -27.23257 17321 ft 342 kts 212°
2026-04-29 07:35 38.46253 -27.25059 18289 ft 341 kts 212°
2026-04-29 07:35 38.44364 -27.26846 19259 ft 339 kts 211°
2026-04-29 07:36 38.42484 -27.28624 20222 ft 336 kts 212°
2026-04-29 07:36 38.40707 -27.30567 21189 ft 338 kts 223°
2026-04-29 07:36 38.39440 -27.33068 22120 ft 345 kts 238°
2026-04-29 07:36 38.38772 -27.36022 22852 ft 360 kts 254°
2026-04-29 07:37 38.38612 -27.39274 23601 ft 364 kts 258°
2026-04-29 07:37 38.38500 -27.42482 24346 ft 363 kts 257°
2026-04-29 07:37 38.38389 -27.45664 25067 ft 361 kts 258°
2026-04-29 07:37 38.38280 -27.48881 25577 ft 366 kts 258°
2026-04-29 07:38 38.38175 -27.52138 26092 ft 369 kts 258°
2026-04-29 07:38 38.38068 -27.55438 26613 ft 372 kts 258°
2026-04-29 07:38 38.37963 -27.58741 27122 ft 374 kts 258°
2026-04-29 07:38 38.37856 -27.62079 27634 ft 376 kts 258°
2026-04-29 07:39 38.37750 -27.65403 28150 ft 377 kts 257°
2026-04-29 07:39 38.37641 -27.68742 28657 ft 378 kts 257°
2026-04-29 07:39 38.37532 -27.72082 29174 ft 378 kts 258°
2026-04-29 07:39 38.37420 -27.75488 29683 ft 378 kts 257°
2026-04-29 07:40 38.37310 -27.78818 30190 ft 377 kts 258°
2026-04-29 07:40 38.37197 -27.82141 30672 ft 375 kts 258°
2026-04-29 07:40 38.37084 -27.85484 31147 ft 372 kts 258°
2026-04-29 07:40 38.36973 -27.88762 31627 ft 369 kts 258°
2026-04-29 07:41 38.36861 -27.92018 32085 ft 366 kts 259°
2026-04-29 07:41 38.36750 -27.95224 32552 ft 361 kts 259°
2026-04-29 07:41 38.36639 -27.98402 33025 ft 356 kts 259°
2026-04-29 07:41 38.36531 -28.01505 33484 ft 350 kts 259°
2026-04-29 07:42 38.36421 -28.04574 33793 ft 347 kts 259°
2026-04-29 07:42 38.36304 -28.07709 33804 ft 355 kts 260°
2026-04-29 07:42 38.36070 -28.14124 33808 ft 370 kts 261°
2026-04-29 07:43 38.35838 -28.20403 33790 ft 383 kts 261°
2026-04-29 07:43 38.35581 -28.27289 33804 ft 399 kts 261°
2026-04-29 07:44 38.35310 -28.34464 33791 ft 411 kts 262°
2026-04-29 07:44 38.35026 -28.41851 33803 ft 421 kts 262°
2026-04-29 07:45 38.34730 -28.49412 33792 ft 432 kts 262°
2026-04-29 07:45 38.34423 -28.57143 33792 ft 441 kts 262°
2026-04-29 07:46 38.34102 -28.65058 33792 ft 450 kts 262°
2026-04-29 07:46 38.33773 -28.73082 33800 ft 457 kts 262°
2026-04-29 07:47 38.33434 -28.81196 33786 ft 459 kts 262°
2026-04-29 07:47 38.33090 -28.89298 33790 ft 458 kts 262°
2026-04-29 07:48 38.32736 -28.97458 33789 ft 460 kts 263°
2026-04-29 07:48 38.32378 -29.05612 33795 ft 460 kts 263°
2026-04-29 07:49 38.32016 -29.13726 33779 ft 460 kts 263°
2026-04-29 07:49 38.31649 -29.21838 33785 ft 459 kts 264°
2026-04-29 07:50 38.31276 -29.29949 33788 ft 457 kts 264°
2026-04-29 07:50 38.30897 -29.38053 33794 ft 459 kts 264°
2026-04-29 07:51 38.30514 -29.46127 33794 ft 457 kts 265°
2026-04-29 07:51 38.30123 -29.54257 33781 ft 460 kts 265°
2026-04-29 07:52 38.29729 -29.62341 33771 ft 458 kts 265°
2026-04-29 07:52 38.29328 -29.70444 33773 ft 460 kts 265°
2026-04-29 07:53 38.28920 -29.78583 33775 ft 460 kts 265°
2026-04-29 07:53 38.28503 -29.86748 33780 ft 462 kts 265°
2026-04-29 07:54 38.28083 -29.94929 33773 ft 462 kts 265°
2026-04-29 07:54 38.27656 -30.03091 33774 ft 463 kts 265°
2026-04-29 07:55 38.27222 -30.11279 33796 ft 464 kts 265°
2026-04-29 07:55 38.26786 -30.19405 33879 ft 462 kts 266°
2026-04-29 07:56 38.26340 -30.27597 33792 ft 458 kts 266°
2026-04-29 07:56 38.25897 -30.35655 33794 ft 459 kts 266°
2026-04-29 07:57 38.25446 -30.43745 33792 ft 460 kts 266°
2026-04-29 07:57 38.24985 -30.51893 33794 ft 459 kts 266°
2026-04-29 07:58 38.24524 -30.59963 33794 ft 459 kts 267°
2026-04-29 07:58 38.24058 -30.68028 33798 ft 458 kts 266°
2026-04-29 07:59 38.23582 -30.76142 33801 ft 459 kts 266°
2026-04-29 07:59 38.23103 -30.84232 33799 ft 457 kts 267°
2026-04-29 08:00 38.22621 -30.92277 33807 ft 460 kts 267°
2026-04-29 08:00 38.22130 -31.00379 33807 ft 459 kts 268°
2026-04-29 08:01 38.21632 -31.08500 33806 ft 460 kts 268°
2026-04-29 08:01 38.21133 -31.16549 33800 ft 455 kts 268°
2026-04-29 08:02 38.20630 -31.24577 33824 ft 457 kts 268°
2026-04-29 08:02 38.20118 -31.32636 33808 ft 455 kts 269°
2026-04-29 08:03 38.19606 -31.40636 33804 ft 453 kts 268°
2026-04-29 08:03 38.19088 -31.48646 33794 ft 455 kts 268°
2026-04-29 08:04 38.18563 -31.56649 33781 ft 453 kts 269°
2026-04-29 08:04 38.18037 -31.64618 33801 ft 453 kts 269°
2026-04-29 08:05 38.17506 -31.72549 33816 ft 452 kts 269°
2026-04-29 08:05 38.16969 -31.80509 33817 ft 451 kts 269°
2026-04-29 08:06 38.16429 -31.88416 33832 ft 450 kts 269°
2026-04-29 08:06 38.15884 -31.96327 33816 ft 447 kts 269°
2026-04-29 08:07 38.15335 -32.04229 33821 ft 451 kts 269°
2026-04-29 08:07 38.14779 -32.12147 33852 ft 446 kts 270°
2026-04-29 08:08 38.14227 -32.19932 33842 ft 444 kts 270°
2026-04-29 08:08 38.13667 -32.27743 33830 ft 443 kts 270°
2026-04-29 08:09 38.13102 -32.35578 33844 ft 445 kts 270°
2026-04-29 08:09 38.12534 -32.43363 33834 ft 441 kts 270°
2026-04-29 08:10 38.11962 -32.51137 33823 ft 440 kts 270°
2026-04-29 08:10 38.11386 -32.58881 33827 ft 441 kts 270°
2026-04-29 08:11 38.10807 -32.66600 33828 ft 438 kts 270°
2026-04-29 08:11 38.10226 -32.74308 33832 ft 438 kts 270°
2026-04-29 08:12 38.09639 -32.81992 33829 ft 434 kts 270°
2026-04-29 08:12 38.09054 -32.89605 33840 ft 436 kts 270°
2026-04-29 08:13 38.08458 -32.97279 33843 ft 433 kts 271°
2026-04-29 08:13 38.07866 -33.04850 33840 ft 432 kts 271°
2026-04-29 08:14 38.07269 -33.12428 33858 ft 433 kts 271°
2026-04-29 08:14 38.06663 -33.20030 33863 ft 431 kts 271°
2026-04-29 08:15 38.06060 -33.27565 33872 ft 431 kts 271°
2026-04-29 08:15 38.05448 -33.35125 33857 ft 429 kts 271°
2026-04-29 08:16 38.04834 -33.42650 33864 ft 429 kts 271°
2026-04-29 08:16 38.04218 -33.50153 33868 ft 430 kts 271°
2026-04-29 08:17 38.03592 -33.57703 33883 ft 427 kts 271°
2026-04-29 08:17 38.02970 -33.65152 33882 ft 427 kts 270°
2026-04-29 08:18 38.02339 -33.72660 33861 ft 427 kts 271°
2026-04-29 08:18 38.01701 -33.80191 33895 ft 429 kts 271°
2026-04-29 08:19 38.01062 -33.87632 33880 ft 419 kts 271°
2026-04-29 08:19 38.00430 -33.95021 33904 ft 427 kts 271°
2026-04-29 08:20 37.99707 -34.02500 33874 ft 425 kts 270°
2026-04-29 08:20 37.98882 -34.09910 33878 ft 424 kts 269°
2026-04-29 08:21 37.98053 -34.17286 33886 ft 426 kts 270°
2026-04-29 08:21 37.97209 -34.24728 33882 ft 425 kts 269°
2026-04-29 08:22 37.96365 -34.32126 33894 ft 426 kts 270°
2026-04-29 08:22 37.95513 -34.39549 33886 ft 425 kts 270°
2026-04-29 08:23 37.94659 -34.46944 33904 ft 425 kts 270°
2026-04-29 08:23 37.93795 -34.54381 33911 ft 424 kts 270°
2026-04-29 08:24 37.92935 -34.61749 33916 ft 422 kts 270°
2026-04-29 08:24 37.92071 -34.69130 33914 ft 427 kts 269°
2026-04-29 08:25 37.91195 -34.76541 33919 ft 425 kts 269°
2026-04-29 08:25 37.90316 -34.83951 33918 ft 427 kts 269°
2026-04-29 08:26 37.89420 -34.91458 33912 ft 428 kts 269°
2026-04-29 08:26 37.88533 -34.98833 33896 ft 425 kts 270°
2026-04-29 08:27 37.87631 -35.06313 33904 ft 428 kts 270°
2026-04-29 08:27 37.86736 -35.13679 33919 ft 423 kts 270°
2026-04-29 08:28 37.85838 -35.21047 33901 ft 425 kts 270°
2026-04-29 08:28 37.84930 -35.28452 33916 ft 425 kts 270°
2026-04-29 08:29 37.84022 -35.35810 33917 ft 424 kts 270°
2026-04-29 08:29 37.83111 -35.43154 33914 ft 420 kts 270°
2026-04-29 08:30 37.81746 -35.54102 33931 ft 421 kts 270°
2026-04-29 08:31 37.80828 -35.61418 33930 ft 422 kts 270°
2026-04-29 08:31 37.79905 -35.68732 33935 ft 424 kts 269°
2026-04-29 08:32 37.78968 -35.76107 33953 ft 419 kts 269°
2026-04-29 08:32 37.78044 -35.83355 33955 ft 421 kts 270°
2026-04-29 08:33 37.77103 -35.90693 33955 ft 421 kts 270°
2026-04-29 08:33 37.76167 -35.97959 33958 ft 419 kts 270°
2026-04-29 08:34 37.75224 -36.05236 33956 ft 419 kts 270°
2026-04-29 08:34 37.74275 -36.12528 33957 ft 417 kts 270°
2026-04-29 08:35 37.73327 -36.19790 33966 ft 418 kts 270°
2026-04-29 08:35 37.72375 -36.27030 33959 ft 419 kts 270°
2026-04-29 08:36 37.71418 -36.34279 33964 ft 419 kts 270°
2026-04-29 08:36 37.70461 -36.41478 33969 ft 417 kts 269°
2026-04-29 08:37 37.69501 -36.48678 33966 ft 415 kts 270°
2026-04-29 08:37 37.68533 -36.55915 33970 ft 416 kts 270°
2026-04-29 08:38 37.67565 -36.63105 33972 ft 416 kts 270°
2026-04-29 08:38 37.66592 -36.70296 33985 ft 418 kts 269°
2026-04-29 08:39 37.65608 -36.77524 33990 ft 415 kts 269°
2026-04-29 08:39 37.64632 -36.84674 33991 ft 416 kts 269°
2026-04-29 08:40 37.63641 -36.91902 33983 ft 415 kts 269°
2026-04-29 08:40 37.62658 -36.99032 33987 ft 415 kts 269°
2026-04-29 08:41 37.61664 -37.06205 33996 ft 413 kts 269°
2026-04-29 08:41 37.60674 -37.13317 34000 ft 412 kts 269°
2026-04-29 08:42 37.59675 -37.20473 33997 ft 413 kts 269°
2026-04-29 08:42 37.58679 -37.27560 33995 ft 413 kts 269°
2026-04-29 08:43 37.57669 -37.34729 33993 ft 412 kts 269°
2026-04-29 08:43 37.56663 -37.41820 34001 ft 410 kts 269°
2026-04-29 08:44 37.55654 -37.48910 33995 ft 410 kts 269°
2026-04-29 08:44 37.54641 -37.56005 34005 ft 412 kts 269°
2026-04-29 08:45 37.53622 -37.63090 34012 ft 410 kts 269°
2026-04-29 08:45 37.52596 -37.70208 34023 ft 412 kts 268°
2026-04-29 08:46 37.51571 -37.77278 34024 ft 411 kts 268°
2026-04-29 08:46 37.50542 -37.84351 34024 ft 409 kts 268°
2026-04-29 08:47 37.49511 -37.91412 34025 ft 412 kts 268°
2026-04-29 08:47 37.48471 -37.98505 34029 ft 413 kts 268°
2026-04-29 08:48 37.47419 -38.05623 34026 ft 410 kts 268°
2026-04-29 08:48 37.46375 -38.12677 34027 ft 413 kts 268°
2026-04-29 08:49 37.45317 -38.19793 34025 ft 412 kts 268°
2026-04-29 08:49 37.44261 -38.26859 34025 ft 411 kts 268°
2026-04-29 08:50 37.43194 -38.33985 34031 ft 412 kts 268°
2026-04-29 08:50 37.42126 -38.41067 34020 ft 411 kts 268°
2026-04-29 08:51 37.41064 -38.48082 34029 ft 410 kts 268°
2026-04-29 08:51 37.39990 -38.55168 34033 ft 412 kts 267°
2026-04-29 08:52 37.38916 -38.62194 34034 ft 410 kts 268°
2026-04-29 08:52 37.37830 -38.69290 34051 ft 412 kts 267°
2026-04-29 08:53 37.36742 -38.76363 34054 ft 412 kts 267°
2026-04-29 08:53 37.35649 -38.83437 34046 ft 412 kts 267°
2026-04-29 08:54 37.34553 -38.90507 34053 ft 412 kts 267°
2026-04-29 08:54 37.33454 -38.97567 34051 ft 413 kts 266°
2026-04-29 08:55 37.32347 -39.04636 34053 ft 412 kts 267°
2026-04-29 08:55 37.31238 -39.11704 34044 ft 413 kts 267°
2026-04-29 08:56 37.30125 -39.18761 34059 ft 413 kts 266°
2026-04-29 08:56 37.29001 -39.25859 34051 ft 412 kts 266°
2026-04-29 08:57 37.27887 -39.32876 34046 ft 411 kts 266°
2026-04-29 08:57 37.26760 -39.39938 34044 ft 412 kts 266°
2026-04-29 08:58 37.25628 -39.46998 34043 ft 412 kts 266°
2026-04-29 08:58 37.24493 -39.54048 34048 ft 412 kts 266°
2026-04-29 08:59 37.23355 -39.61101 34042 ft 413 kts 266°
2026-04-29 08:59 37.22214 -39.68132 34059 ft 412 kts 265°
2026-04-29 09:00 37.21071 -39.75156 34055 ft 411 kts 265°
2026-04-29 09:00 37.19923 -39.82178 34055 ft 413 kts 265°
2026-04-29 09:01 37.18765 -39.89240 34052 ft 410 kts 265°
2026-04-29 09:01 37.17612 -39.96240 34051 ft 412 kts 265°
2026-04-29 09:02 37.16454 -40.03239 34052 ft 412 kts 265°
2026-04-29 09:02 37.15285 -40.10289 34049 ft 412 kts 265°
2026-04-29 09:03 37.14119 -40.17277 34060 ft 410 kts 265°
2026-04-29 09:03 37.12947 -40.24287 34066 ft 409 kts 265°
2026-04-29 09:04 37.11778 -40.31254 34071 ft 409 kts 265°
2026-04-29 09:04 37.10596 -40.38258 34073 ft 410 kts 265°
2026-04-29 09:05 37.09417 -40.45232 34062 ft 410 kts 265°
2026-04-29 09:05 37.08228 -40.52229 34070 ft 411 kts 265°
2026-04-29 09:06 37.07037 -40.59221 34060 ft 409 kts 264°
2026-04-29 09:06 37.05840 -40.66212 34071 ft 411 kts 264°
2026-04-29 09:07 37.04637 -40.73217 34076 ft 413 kts 264°
2026-04-29 09:07 37.03423 -40.80258 34080 ft 412 kts 264°
2026-04-29 09:08 37.02215 -40.87237 34075 ft 413 kts 264°
2026-04-29 09:08 37.00991 -40.94286 34072 ft 413 kts 264°
2026-04-29 09:09 36.99757 -41.01283 34077 ft 413 kts 264°
2026-04-29 09:09 36.98986 -41.08342 34075 ft 410 kts 268°
2026-04-29 09:10 36.98229 -41.15412 34075 ft 411 kts 267°
2026-04-29 09:10 36.97446 -41.22464 34073 ft 409 kts 267°
2026-04-29 09:11 36.96644 -41.29552 34077 ft 411 kts 267°
2026-04-29 09:11 36.95837 -41.36606 34071 ft 407 kts 266°
2026-04-29 09:12 36.95031 -41.43609 34069 ft 410 kts 267°
2026-04-29 09:12 36.94211 -41.50674 34071 ft 411 kts 266°
2026-04-29 09:13 36.93390 -41.57711 34066 ft 409 kts 266°
2026-04-29 09:13 36.92565 -41.64747 34067 ft 410 kts 266°
2026-04-29 09:14 36.91725 -41.71865 34076 ft 411 kts 266°
2026-04-29 09:14 36.90891 -41.78912 34077 ft 412 kts 266°
2026-04-29 09:15 36.90046 -41.85995 34078 ft 413 kts 266°
2026-04-29 09:15 36.89193 -41.93120 34069 ft 414 kts 265°
2026-04-29 09:16 36.88337 -42.00230 34068 ft 415 kts 265°
2026-04-29 09:16 36.87474 -42.07347 34066 ft 414 kts 265°
2026-04-29 09:17 36.86612 -42.14427 34066 ft 415 kts 265°
2026-04-29 09:17 36.85737 -42.21585 34071 ft 414 kts 265°
2026-04-29 09:18 36.84864 -42.28686 34069 ft 413 kts 265°
2026-04-29 09:18 36.83992 -42.35750 34069 ft 413 kts 265°
2026-04-29 09:19 36.83110 -42.42862 34071 ft 413 kts 265°
2026-04-29 09:19 36.82229 -42.49912 34070 ft 412 kts 265°
2026-04-29 09:20 36.81342 -42.56987 34070 ft 415 kts 264°
2026-04-29 09:20 36.80448 -42.64078 34072 ft 414 kts 265°
2026-04-29 09:21 36.79549 -42.71182 34088 ft 415 kts 264°
2026-04-29 09:21 36.78641 -42.78316 34088 ft 416 kts 264°
2026-04-29 09:22 36.77731 -42.85429 34087 ft 415 kts 264°
2026-04-29 09:22 36.76815 -42.92552 34091 ft 415 kts 264°
2026-04-29 09:23 36.75902 -42.99621 34090 ft 414 kts 264°
2026-04-29 09:23 36.74983 -43.06710 34089 ft 415 kts 264°
2026-04-29 09:24 36.74059 -43.13792 34084 ft 414 kts 263°
2026-04-29 09:24 36.73131 -43.20870 34087 ft 415 kts 264°
2026-04-29 09:25 36.72193 -43.28004 34086 ft 415 kts 263°
2026-04-29 09:25 36.71261 -43.35049 34086 ft 415 kts 263°
2026-04-29 09:26 36.70314 -43.42166 34088 ft 416 kts 263°
2026-04-29 09:26 36.69371 -43.49237 34082 ft 415 kts 263°
2026-04-29 09:27 36.68415 -43.56371 34085 ft 416 kts 263°
2026-04-29 09:27 36.67458 -43.63463 34082 ft 417 kts 263°
2026-04-29 09:28 36.66491 -43.70605 34096 ft 417 kts 262°
2026-04-29 09:28 36.65525 -43.77705 34092 ft 417 kts 262°
2026-04-29 09:29 36.64547 -43.84860 34093 ft 419 kts 262°
2026-04-29 09:29 36.63073 -43.95584 34092 ft 419 kts 262°
2026-04-29 09:30 36.62089 -44.02701 34089 ft 419 kts 262°
2026-04-29 09:30 36.61092 -44.09885 34092 ft 420 kts 262°
2026-04-29 09:31 36.60088 -44.17073 34089 ft 420 kts 262°
2026-04-29 09:31 36.59090 -44.24194 34088 ft 420 kts 262°
2026-04-29 09:32 36.58080 -44.31368 34088 ft 420 kts 261°
2026-04-29 09:32 36.57064 -44.38553 34086 ft 422 kts 262°
2026-04-29 09:33 36.56044 -44.45732 34087 ft 419 kts 262°
2026-04-29 09:33 36.55025 -44.52869 34084 ft 422 kts 261°
2026-04-29 09:34 36.53994 -44.60062 34083 ft 420 kts 261°
2026-04-29 09:34 36.52962 -44.67243 34097 ft 424 kts 261°
2026-04-29 09:35 36.51922 -44.74429 34094 ft 422 kts 261°
2026-04-29 09:35 36.50874 -44.81641 34092 ft 424 kts 260°
2026-04-29 09:36 36.49823 -44.88842 34092 ft 425 kts 261°
2026-04-29 09:36 36.48764 -44.96072 34092 ft 426 kts 261°
2026-04-29 09:37 36.47695 -45.03339 34089 ft 427 kts 260°
2026-04-29 09:37 36.46629 -45.10548 34087 ft 425 kts 260°
2026-04-29 09:38 36.45551 -45.17811 34089 ft 425 kts 261°
2026-04-29 09:38 36.44471 -45.25053 34087 ft 426 kts 260°
2026-04-29 09:39 36.43389 -45.32277 34089 ft 427 kts 260°
2026-04-29 09:39 36.42302 -45.39507 34087 ft 425 kts 260°
2026-04-29 09:40 36.41210 -45.46732 34087 ft 427 kts 260°
2026-04-29 09:40 36.40110 -45.53985 34086 ft 428 kts 259°
2026-04-29 09:41 36.39008 -45.61212 34087 ft 426 kts 259°
2026-04-29 09:41 36.37902 -45.68446 34096 ft 427 kts 259°
2026-04-29 09:42 36.36794 -45.75663 34093 ft 427 kts 259°
2026-04-29 09:42 36.35670 -45.82950 34093 ft 427 kts 259°
2026-04-29 09:43 36.34547 -45.90193 34094 ft 427 kts 259°
2026-04-29 09:43 36.33424 -45.97415 34090 ft 426 kts 259°
2026-04-29 09:44 36.32291 -46.04661 34092 ft 428 kts 259°
2026-04-29 09:44 36.31161 -46.11870 34088 ft 426 kts 258°
2026-04-29 09:45 36.30023 -46.19091 34086 ft 428 kts 259°
2026-04-29 09:45 36.28879 -46.26327 34082 ft 428 kts 258°
2026-04-29 09:46 36.27729 -46.33567 34076 ft 426 kts 258°
2026-04-29 09:46 36.26580 -46.40768 34077 ft 426 kts 258°
2026-04-29 09:47 36.25425 -46.47983 34074 ft 430 kts 258°
2026-04-29 09:47 36.24259 -46.55242 34065 ft 427 kts 258°
2026-04-29 09:48 36.23087 -46.62500 34059 ft 427 kts 258°
2026-04-29 09:48 36.21912 -46.69745 34074 ft 428 kts 257°
2026-04-29 09:49 36.20740 -46.76951 34072 ft 426 kts 257°
2026-04-29 09:49 36.19566 -46.84139 34079 ft 428 kts 257°
2026-04-29 09:50 36.18377 -46.91384 34065 ft 429 kts 257°
2026-04-29 09:50 36.17184 -46.98634 34055 ft 426 kts 257°
2026-04-29 09:51 36.15995 -47.05825 34046 ft 428 kts 257°
2026-04-29 09:51 36.14799 -47.13033 34043 ft 427 kts 257°
2026-04-29 09:52 36.13594 -47.20263 34058 ft 428 kts 257°
2026-04-29 09:52 36.12389 -47.27468 34047 ft 426 kts 256°
2026-04-29 09:53 36.11176 -47.34689 34046 ft 429 kts 256°
2026-04-29 09:53 36.09962 -47.41891 34042 ft 428 kts 256°
2026-04-29 09:54 36.08736 -47.49136 34043 ft 430 kts 256°
2026-04-29 09:54 36.07507 -47.56369 34044 ft 430 kts 256°
2026-04-29 09:55 36.06275 -47.63594 34043 ft 428 kts 256°
2026-04-29 09:55 36.05043 -47.70794 34051 ft 428 kts 255°
2026-04-29 09:56 36.03801 -47.78016 34052 ft 431 kts 256°
2026-04-29 09:56 36.02548 -47.85286 34043 ft 429 kts 256°
2026-04-29 09:57 36.01300 -47.92496 34038 ft 429 kts 255°
2026-04-29 09:57 35.99941 -47.99648 34049 ft 429 kts 250°
2026-04-29 09:58 35.97932 -48.06604 34040 ft 429 kts 249°
2026-04-29 09:58 35.95881 -48.13530 34042 ft 430 kts 248°
2026-04-29 09:59 35.93805 -48.20443 34030 ft 430 kts 248°
2026-04-29 09:59 35.91702 -48.27398 34026 ft 430 kts 247°
2026-04-29 10:00 35.89599 -48.34323 34029 ft 431 kts 247°
2026-04-29 10:00 35.87495 -48.41228 34032 ft 429 kts 248°
2026-04-29 10:01 35.85391 -48.48111 34017 ft 431 kts 247°
2026-04-29 10:01 35.83277 -48.55014 34020 ft 431 kts 247°
2026-04-29 10:02 35.81155 -48.61925 34016 ft 431 kts 247°
2026-04-29 10:02 35.79018 -48.68863 34027 ft 431 kts 246°
2026-04-29 10:03 35.76904 -48.75719 34017 ft 431 kts 246°
2026-04-29 10:03 35.74762 -48.82641 34012 ft 431 kts 246°
2026-04-29 10:04 35.72612 -48.89572 34010 ft 434 kts 246°
2026-04-29 10:04 35.70449 -48.96534 34001 ft 433 kts 246°
2026-04-29 10:05 35.68293 -49.03455 34008 ft 433 kts 246°
2026-04-29 10:05 35.66140 -49.10346 33998 ft 434 kts 245°
2026-04-29 10:06 35.63963 -49.17305 33990 ft 434 kts 245°
2026-04-29 10:06 35.61790 -49.24228 33992 ft 435 kts 245°
2026-04-29 10:07 35.59602 -49.31187 33987 ft 438 kts 245°
2026-04-29 10:07 35.57407 -49.38146 33981 ft 437 kts 245°
2026-04-29 10:08 35.55208 -49.45106 33978 ft 435 kts 245°
2026-04-29 10:08 35.53006 -49.52056 33981 ft 437 kts 245°
2026-04-29 10:09 35.50796 -49.59016 33976 ft 440 kts 245°
2026-04-29 10:09 35.48567 -49.66021 33970 ft 436 kts 244°
2026-04-29 10:10 35.46343 -49.72992 33952 ft 438 kts 244°
2026-04-29 10:10 35.44108 -49.79982 33948 ft 440 kts 244°
2026-04-29 10:11 35.41866 -49.86980 33952 ft 441 kts 244°
2026-04-29 10:11 35.39607 -49.94010 33943 ft 441 kts 244°
2026-04-29 10:12 35.37362 -50.00981 33936 ft 441 kts 244°
2026-04-29 10:12 35.35108 -50.07962 33941 ft 442 kts 244°
2026-04-29 10:13 35.32843 -50.14964 33942 ft 441 kts 244°
2026-04-29 10:13 35.30568 -50.21979 33938 ft 443 kts 243°
2026-04-29 10:14 35.28284 -50.29004 33928 ft 444 kts 244°
2026-04-29 10:14 35.26002 -50.36007 33934 ft 445 kts 244°
2026-04-29 10:15 35.23700 -50.43060 33938 ft 445 kts 244°
2026-04-29 10:15 35.21376 -50.50155 33930 ft 446 kts 244°
2026-04-29 10:16 35.19459 -50.55998 33921 ft 447 kts 244°
2026-04-29 10:16 35.16758 -50.64217 33927 ft 445 kts 243°
2026-04-29 10:17 35.14418 -50.71308 33924 ft 452 kts 243°
2026-04-29 10:17 35.12069 -50.78419 33908 ft 451 kts 243°
2026-04-29 10:18 35.09720 -50.85513 33930 ft 450 kts 243°
2026-04-29 10:18 35.07374 -50.92583 33915 ft 449 kts 243°
2026-04-29 10:19 35.05003 -50.99704 33902 ft 454 kts 242°
2026-04-29 10:19 35.02632 -51.06815 33900 ft 451 kts 243°
2026-04-29 10:20 35.00233 -51.13988 33905 ft 457 kts 243°
2026-04-29 10:20 34.97831 -51.21160 33893 ft 456 kts 242°
2026-04-29 10:21 34.95419 -51.28339 33901 ft 456 kts 243°
2026-04-29 10:21 34.93012 -51.35493 33885 ft 451 kts 242°
2026-04-29 10:22 34.90628 -51.42554 33860 ft 452 kts 242°
2026-04-29 10:22 34.88220 -51.49672 33878 ft 453 kts 243°
2026-04-29 10:23 34.85812 -51.56775 33868 ft 455 kts 242°
2026-04-29 10:23 34.83402 -51.63873 33865 ft 454 kts 243°
2026-04-29 10:24 34.80978 -51.70988 33856 ft 452 kts 242°
2026-04-29 10:24 34.78552 -51.78095 33869 ft 456 kts 242°
2026-04-29 10:25 34.76105 -51.85247 33862 ft 454 kts 242°
2026-04-29 10:25 34.73671 -51.92344 33850 ft 459 kts 242°
2026-04-29 10:26 34.71215 -51.99491 33849 ft 455 kts 242°
2026-04-29 10:26 34.68756 -52.06628 33851 ft 455 kts 242°
2026-04-29 10:27 34.65054 -52.17342 33848 ft 458 kts 242°
2026-04-29 10:28 34.62584 -52.24476 33838 ft 455 kts 242°
2026-04-29 10:28 34.60119 -52.31570 33829 ft 457 kts 242°
2026-04-29 10:29 34.57648 -52.38668 33818 ft 455 kts 242°
2026-04-29 10:29 34.55181 -52.45744 33831 ft 457 kts 242°
2026-04-29 10:30 34.52678 -52.52908 33813 ft 455 kts 242°
2026-04-29 10:30 34.50196 -52.59986 33815 ft 458 kts 242°
2026-04-29 10:31 34.47694 -52.67110 33801 ft 455 kts 242°
2026-04-29 10:31 34.45219 -52.74142 33800 ft 456 kts 242°
2026-04-29 10:32 34.42709 -52.81259 33792 ft 455 kts 242°
2026-04-29 10:32 34.40218 -52.88308 33793 ft 453 kts 242°
2026-04-29 10:33 34.37722 -52.95347 33790 ft 456 kts 242°
2026-04-29 10:33 34.35225 -53.02378 33779 ft 452 kts 242°
2026-04-29 10:34 34.32730 -53.09387 33772 ft 452 kts 243°
2026-04-29 10:34 34.30239 -53.16374 33763 ft 452 kts 243°
2026-04-29 10:35 34.27749 -53.23340 33761 ft 450 kts 243°
2026-04-29 10:35 34.25254 -53.30303 33762 ft 454 kts 243°
2026-04-29 10:36 34.22722 -53.37355 33765 ft 452 kts 243°
2026-04-29 10:36 34.20217 -53.44316 33764 ft 453 kts 243°
2026-04-29 10:37 34.17706 -53.51282 33766 ft 451 kts 244°
2026-04-29 10:37 34.15191 -53.58239 33758 ft 451 kts 244°
2026-04-29 10:38 34.12681 -53.65174 33745 ft 450 kts 244°
2026-04-29 10:38 34.10157 -53.72125 33758 ft 452 kts 244°
2026-04-29 10:39 34.07619 -53.79105 33763 ft 450 kts 244°
2026-04-29 10:39 34.05113 -53.85983 33763 ft 449 kts 244°
2026-04-29 10:40 34.02578 -53.92919 33752 ft 451 kts 245°
2026-04-29 10:40 34.00136 -53.99866 33746 ft 454 kts 250°
2026-04-29 10:41 33.98836 -54.07329 33742 ft 457 kts 258°
2026-04-29 10:41 33.97686 -54.14904 33749 ft 453 kts 258°
2026-04-29 10:42 33.96546 -54.22315 33752 ft 453 kts 258°
2026-04-29 10:42 33.95387 -54.29784 33750 ft 449 kts 258°
2026-04-29 10:43 33.94232 -54.37178 33754 ft 448 kts 258°
2026-04-29 10:43 33.93077 -54.44544 33756 ft 449 kts 258°
2026-04-29 10:44 33.91916 -54.51917 33750 ft 445 kts 258°
2026-04-29 10:44 33.90755 -54.59259 33751 ft 446 kts 258°
2026-04-29 10:45 33.89584 -54.66631 33751 ft 447 kts 258°
2026-04-29 10:45 33.88422 -54.73922 33750 ft 443 kts 258°
2026-04-29 10:46 33.87254 -54.81221 33750 ft 445 kts 258°
2026-04-29 10:46 33.86080 -54.88520 33753 ft 442 kts 259°
2026-04-29 10:47 33.84909 -54.95775 33752 ft 441 kts 259°
2026-04-29 10:47 33.83738 -55.03012 33756 ft 440 kts 259°
2026-04-29 10:48 33.82556 -55.10278 33757 ft 441 kts 259°
2026-04-29 10:48 33.81378 -55.17501 33757 ft 440 kts 259°
2026-04-29 10:49 33.80192 -55.24737 33761 ft 438 kts 259°
2026-04-29 10:49 33.79006 -55.31946 33758 ft 437 kts 260°
2026-04-29 10:50 33.77825 -55.39092 33760 ft 433 kts 260°
2026-04-29 10:50 33.76643 -55.46223 33756 ft 434 kts 260°
2026-04-29 10:51 33.75470 -55.53277 33751 ft 431 kts 261°
2026-04-29 10:51 33.74294 -55.60317 33749 ft 430 kts 261°
2026-04-29 10:52 33.73109 -55.67395 33752 ft 430 kts 261°
2026-04-29 10:52 33.71925 -55.74439 33746 ft 428 kts 261°
2026-04-29 10:53 33.70745 -55.81424 33754 ft 425 kts 261°
2026-04-29 10:53 33.69559 -55.88423 33749 ft 426 kts 261°
2026-04-29 10:54 33.68373 -55.95396 33748 ft 426 kts 261°
2026-04-29 10:54 33.67190 -56.02333 33747 ft 424 kts 261°
2026-04-29 10:55 33.65999 -56.09286 33745 ft 424 kts 262°
2026-04-29 10:55 33.64811 -56.16206 33744 ft 424 kts 261°
2026-04-29 10:56 33.63612 -56.23161 33743 ft 423 kts 262°
2026-04-29 10:56 33.62421 -56.30030 33746 ft 420 kts 262°
2026-04-29 10:57 33.61220 -56.36951 33748 ft 421 kts 262°
2026-04-29 10:57 33.60023 -56.43822 33747 ft 419 kts 262°
2026-04-29 10:58 33.58830 -56.50642 33747 ft 418 kts 262°
2026-04-29 10:58 33.57632 -56.57478 33742 ft 417 kts 262°
2026-04-29 10:59 33.56436 -56.64265 33735 ft 416 kts 263°
2026-04-29 10:59 33.55232 -56.71076 33748 ft 416 kts 262°
2026-04-29 11:00 33.54032 -56.77855 33755 ft 413 kts 262°
2026-04-29 11:00 33.52834 -56.84593 33748 ft 414 kts 262°
2026-04-29 11:01 33.51627 -56.91354 33739 ft 415 kts 263°
2026-04-29 11:01 33.50415 -56.98122 33745 ft 412 kts 262°
2026-04-29 11:02 33.49205 -57.04861 33752 ft 412 kts 263°
2026-04-29 11:02 33.47992 -57.11594 33750 ft 413 kts 263°
2026-04-29 11:03 33.46781 -57.18293 33750 ft 412 kts 262°
2026-04-29 11:03 33.45558 -57.25027 33750 ft 410 kts 263°
2026-04-29 11:04 33.44342 -57.31712 33749 ft 412 kts 263°
2026-04-29 11:04 33.43115 -57.38430 33749 ft 410 kts 263°
2026-04-29 11:05 33.41900 -57.45065 33740 ft 407 kts 263°
2026-04-29 11:05 33.40682 -57.51701 33740 ft 410 kts 263°
2026-04-29 11:06 33.39453 -57.58360 33740 ft 408 kts 263°
2026-04-29 11:06 33.38223 -57.65018 33737 ft 410 kts 263°
2026-04-29 11:07 33.36981 -57.71710 33743 ft 407 kts 263°
2026-04-29 11:07 33.35746 -57.78355 33742 ft 409 kts 262°
2026-04-29 11:08 33.34509 -57.84970 33729 ft 407 kts 263°
2026-04-29 11:08 33.33263 -57.91642 33749 ft 411 kts 262°
2026-04-29 11:09 33.32015 -57.98273 33750 ft 408 kts 263°
2026-04-29 11:09 33.30767 -58.04891 33756 ft 408 kts 263°
2026-04-29 11:10 33.29510 -58.11556 33763 ft 411 kts 263°
2026-04-29 11:10 33.28249 -58.18193 33756 ft 407 kts 263°
2026-04-29 11:11 33.26985 -58.24851 33746 ft 411 kts 263°
2026-04-29 11:11 33.25716 -58.31496 33747 ft 411 kts 263°
2026-04-29 11:12 33.24446 -58.38131 33748 ft 410 kts 263°
2026-04-29 11:12 33.23161 -58.44831 33753 ft 410 kts 263°
2026-04-29 11:13 33.21875 -58.51508 33756 ft 412 kts 263°
2026-04-29 11:13 33.20582 -58.58207 33751 ft 412 kts 262°
2026-04-29 11:14 33.19294 -58.64848 33747 ft 413 kts 263°
2026-04-29 11:14 33.17994 -58.71545 33771 ft 412 kts 262°
2026-04-29 11:15 33.16700 -58.78172 33759 ft 412 kts 262°
2026-04-29 11:15 33.15392 -58.84872 33765 ft 415 kts 262°
2026-04-29 11:16 33.14076 -58.91583 33761 ft 412 kts 262°
2026-04-29 11:16 33.12762 -58.98259 33755 ft 413 kts 262°
2026-04-29 11:17 33.11447 -59.04926 33765 ft 412 kts 262°
2026-04-29 11:17 33.10122 -59.11626 33759 ft 414 kts 262°
2026-04-29 11:18 33.08792 -59.18324 33760 ft 414 kts 262°
2026-04-29 11:18 33.07458 -59.25031 33768 ft 414 kts 262°
2026-04-29 11:19 33.06122 -59.31718 33781 ft 413 kts 261°
2026-04-29 11:19 33.04788 -59.38379 33773 ft 412 kts 261°
2026-04-29 11:20 33.03445 -59.45067 33773 ft 415 kts 262°
2026-04-29 11:20 33.02105 -59.51724 33779 ft 414 kts 261°
2026-04-29 11:21 33.00752 -59.58416 33780 ft 415 kts 262°
2026-04-29 11:21 32.99394 -59.65119 33777 ft 413 kts 261°
2026-04-29 11:22 32.98035 -59.71807 33787 ft 417 kts 261°
2026-04-29 11:22 32.96661 -59.78543 33789 ft 415 kts 261°
2026-04-29 11:23 32.95298 -59.85219 33788 ft 417 kts 261°
2026-04-29 11:23 32.93916 -59.91955 33779 ft 415 kts 261°
2026-04-29 11:24 32.92542 -59.98644 33786 ft 418 kts 261°
2026-04-29 11:24 32.91153 -60.05373 33781 ft 417 kts 261°
2026-04-29 11:25 32.89775 -60.12039 33764 ft 416 kts 261°
2026-04-29 11:25 32.88381 -60.18761 33769 ft 416 kts 261°
2026-04-29 11:26 32.86285 -60.28832 33777 ft 417 kts 260°
2026-04-29 11:26 32.84885 -60.35531 33762 ft 417 kts 260°
2026-04-29 11:27 32.83483 -60.42224 33790 ft 418 kts 260°
2026-04-29 11:27 32.82066 -60.48968 33783 ft 418 kts 260°
2026-04-29 11:28 32.80656 -60.55659 33788 ft 418 kts 260°
2026-04-29 11:28 32.79233 -60.62391 33791 ft 417 kts 260°
2026-04-29 11:29 32.77813 -60.69091 33807 ft 417 kts 259°
2026-04-29 11:29 32.76396 -60.75762 33806 ft 419 kts 259°
2026-04-29 11:30 32.74958 -60.82508 33807 ft 418 kts 259°
2026-04-29 11:30 32.73533 -60.89177 33804 ft 418 kts 259°
2026-04-29 11:31 32.72093 -60.95894 33808 ft 418 kts 259°
2026-04-29 11:31 32.70660 -61.02563 33802 ft 418 kts 259°
2026-04-29 11:32 32.69208 -61.09300 33809 ft 418 kts 259°
2026-04-29 11:32 32.67764 -61.15982 33805 ft 418 kts 258°
2026-04-29 11:33 32.66773 -61.22758 33808 ft 416 kts 267°
2026-04-29 11:33 32.66288 -61.29607 33799 ft 418 kts 267°
2026-04-29 11:34 32.65783 -61.36460 33804 ft 417 kts 267°
2026-04-29 11:34 32.65270 -61.43339 33810 ft 416 kts 267°
2026-04-29 11:35 32.64751 -61.50206 33811 ft 417 kts 266°
2026-04-29 11:35 32.64228 -61.57068 33811 ft 417 kts 266°
2026-04-29 11:36 32.63702 -61.63923 33817 ft 418 kts 266°
2026-04-29 11:36 32.63172 -61.70784 33839 ft 419 kts 266°
2026-04-29 11:37 32.62634 -61.77680 33835 ft 420 kts 266°
2026-04-29 11:37 32.62093 -61.84576 33836 ft 418 kts 266°
2026-04-29 11:38 32.61552 -61.91428 33841 ft 419 kts 265°
2026-04-29 11:38 32.61002 -61.98330 33837 ft 420 kts 266°
2026-04-29 11:39 32.60451 -62.05212 33838 ft 420 kts 266°
2026-04-29 11:39 32.59897 -62.12088 33832 ft 420 kts 265°
2026-04-29 11:40 32.59336 -62.18993 33835 ft 420 kts 265°
2026-04-29 11:40 32.58772 -62.25884 33835 ft 421 kts 265°
2026-04-29 11:41 32.58201 -62.32825 33833 ft 422 kts 265°
2026-04-29 11:41 32.57628 -62.39732 33831 ft 421 kts 265°
2026-04-29 11:42 32.57051 -62.46648 33830 ft 421 kts 265°
2026-04-29 11:42 32.56470 -62.53551 33833 ft 422 kts 266°
2026-04-29 11:43 32.55886 -62.60468 33837 ft 422 kts 265°
2026-04-29 11:43 32.55299 -62.67370 33849 ft 423 kts 265°
2026-04-29 11:44 32.54704 -62.74300 33853 ft 422 kts 265°
2026-04-29 11:44 32.54104 -62.81255 33846 ft 423 kts 265°
2026-04-29 11:45 32.53503 -62.88175 33848 ft 423 kts 265°
2026-04-29 11:45 32.52900 -62.95085 33854 ft 422 kts 265°
2026-04-29 11:46 32.52291 -63.02008 33865 ft 424 kts 265°
2026-04-29 11:46 32.51677 -63.08944 33862 ft 424 kts 265°
2026-04-29 11:47 32.51056 -63.15910 33863 ft 422 kts 265°
2026-04-29 11:47 32.50438 -63.22816 33858 ft 423 kts 265°
2026-04-29 11:48 32.49811 -63.29762 33865 ft 424 kts 266°
2026-04-29 11:48 32.49180 -63.36714 33862 ft 424 kts 266°
2026-04-29 11:49 32.48544 -63.43676 33867 ft 424 kts 266°
2026-04-29 11:49 32.47904 -63.50644 33864 ft 425 kts 266°
2026-04-29 11:50 32.47266 -63.57558 33871 ft 423 kts 267°
2026-04-29 11:50 32.46619 -63.64521 33868 ft 425 kts 267°
2026-04-29 11:51 32.45967 -63.71473 33883 ft 424 kts 267°
2026-04-29 11:51 32.45312 -63.78425 33886 ft 423 kts 267°
2026-04-29 11:52 32.44654 -63.85388 33886 ft 426 kts 268°
2026-04-29 11:52 32.43995 -63.92305 33887 ft 425 kts 267°
2026-04-29 11:53 32.43330 -63.99252 33887 ft 423 kts 268°
2026-04-29 11:53 32.42661 -64.06190 33890 ft 426 kts 268°
2026-04-29 11:54 32.41986 -64.13154 33880 ft 422 kts 269°
2026-04-29 11:54 32.41314 -64.20057 33881 ft 425 kts 269°
2026-04-29 11:55 32.40633 -64.26989 33877 ft 421 kts 269°
2026-04-29 11:55 32.39950 -64.33910 33891 ft 421 kts 270°
2026-04-29 11:56 32.39269 -64.40784 33896 ft 419 kts 269°
2026-04-29 11:56 32.38590 -64.47576 33896 ft 418 kts 270°
2026-04-29 11:57 32.37902 -64.54456 33902 ft 419 kts 270°
2026-04-29 11:57 32.37213 -64.61269 33904 ft 415 kts 270°
2026-04-29 11:58 32.36531 -64.68032 33922 ft 418 kts 271°
2026-04-29 11:58 32.36446 -64.74828 33926 ft 411 kts 277°
2026-04-29 11:59 32.36559 -64.81566 33933 ft 410 kts 278°
2026-04-29 11:59 32.36645 -64.88286 33936 ft 408 kts 277°
2026-04-29 12:00 32.36723 -64.95034 33939 ft 408 kts 278°
2026-04-29 12:00 32.36789 -65.01684 33934 ft 406 kts 278°
2026-04-29 12:01 32.36855 -65.08398 33930 ft 407 kts 278°
2026-04-29 12:01 32.36912 -65.15074 33929 ft 405 kts 278°
2026-04-29 12:02 32.36970 -65.21735 33937 ft 408 kts 278°
2026-04-29 12:02 32.37020 -65.28510 33934 ft 410 kts 278°
2026-04-29 12:03 32.37068 -65.35235 33933 ft 409 kts 278°
2026-04-29 12:03 32.37112 -65.41930 33940 ft 408 kts 277°
2026-04-29 12:04 32.37153 -65.48645 33938 ft 409 kts 277°
2026-04-29 12:04 32.37190 -65.55366 33938 ft 408 kts 277°
2026-04-29 12:05 32.37224 -65.62108 33939 ft 410 kts 277°
2026-04-29 12:05 32.37253 -65.68826 33960 ft 411 kts 277°
2026-04-29 12:06 32.37281 -65.75610 33949 ft 410 kts 276°
2026-04-29 12:06 32.37304 -65.82349 33959 ft 412 kts 277°
2026-04-29 12:07 32.37322 -65.89123 33955 ft 413 kts 277°
2026-04-29 12:07 32.37339 -65.95931 33957 ft 415 kts 276°
2026-04-29 12:08 32.37350 -66.02741 33956 ft 414 kts 277°
2026-04-29 12:08 32.37359 -66.09592 33950 ft 415 kts 276°
2026-04-29 12:09 32.37363 -66.16402 33957 ft 414 kts 276°
2026-04-29 12:09 32.37364 -66.23196 33959 ft 417 kts 276°
2026-04-29 12:10 32.37361 -66.30027 33960 ft 416 kts 277°
2026-04-29 12:10 32.37356 -66.36872 33957 ft 415 kts 276°
2026-04-29 12:11 32.37344 -66.43666 34334 ft 408 kts 276°
2026-04-29 12:11 32.37333 -66.46983 35191 ft 397 kts 277°
2026-04-29 12:11 32.37324 -66.50182 36022 ft 386 kts 277°
2026-04-29 12:12 32.37316 -66.53265 36864 ft 374 kts 278°
2026-04-29 12:12 32.37305 -66.56258 37725 ft 360 kts 278°
2026-04-29 12:12 32.37300 -66.59209 37984 ft 361 kts 277°
2026-04-29 12:12 32.37297 -66.62209 37968 ft 367 kts 277°
2026-04-29 12:13 32.37279 -66.68316 37984 ft 377 kts 277°
2026-04-29 12:13 32.37256 -66.74590 37973 ft 388 kts 276°
2026-04-29 12:14 32.37227 -66.81126 37980 ft 398 kts 276°
2026-04-29 12:14 32.37194 -66.87773 37979 ft 408 kts 276°
2026-04-29 12:15 32.37156 -66.94569 37987 ft 417 kts 276°
2026-04-29 12:15 32.37115 -67.01489 37982 ft 424 kts 276°
2026-04-29 12:16 32.37066 -67.08526 37977 ft 426 kts 276°
2026-04-29 12:16 32.37016 -67.15528 37989 ft 428 kts 276°
2026-04-29 12:17 32.36959 -67.22619 37985 ft 429 kts 276°
2026-04-29 12:17 32.36901 -67.29640 37976 ft 428 kts 276°
2026-04-29 12:18 32.36838 -67.36694 37984 ft 428 kts 276°
2026-04-29 12:18 32.36772 -67.43727 37984 ft 426 kts 276°
2026-04-29 12:19 32.36702 -67.50755 37991 ft 429 kts 276°
2026-04-29 12:19 32.36628 -67.57787 37977 ft 429 kts 276°
2026-04-29 12:20 32.36549 -67.64841 37985 ft 429 kts 276°
2026-04-29 12:20 32.36467 -67.71914 37993 ft 429 kts 275°
2026-04-29 12:21 32.36382 -67.78982 37991 ft 429 kts 275°
2026-04-29 12:21 32.36291 -67.86044 38004 ft 429 kts 275°
2026-04-29 12:22 32.36197 -67.93142 38004 ft 430 kts 275°
2026-04-29 12:22 32.36098 -68.00182 37994 ft 428 kts 275°
2026-04-29 12:23 32.35997 -68.07256 37994 ft 431 kts 275°
2026-04-29 12:23 32.35891 -68.14336 37998 ft 429 kts 275°
2026-04-29 12:24 32.35781 -68.21379 37989 ft 431 kts 275°
2026-04-29 12:24 32.35368 -68.28516 37994 ft 435 kts 271°
2026-04-29 12:25 32.34832 -68.35613 37999 ft 433 kts 271°
2026-04-29 12:26 32.34024 -68.46314 38005 ft 435 kts 271°
2026-04-29 12:26 32.33480 -68.53462 38011 ft 435 kts 271°
2026-04-29 12:27 32.32937 -68.60571 38006 ft 436 kts 271°
2026-04-29 12:27 32.32389 -68.67687 38021 ft 435 kts 270°
2026-04-29 12:28 32.31835 -68.74832 38022 ft 437 kts 270°
2026-04-29 12:28 32.31278 -68.81951 38013 ft 435 kts 270°
2026-04-29 12:29 32.30718 -68.89074 38022 ft 437 kts 270°
2026-04-29 12:29 32.30151 -68.96226 38024 ft 436 kts 270°
2026-04-29 12:30 32.29578 -69.03400 38026 ft 438 kts 270°
2026-04-29 12:30 32.28998 -69.10611 38026 ft 437 kts 270°
2026-04-29 12:31 32.28421 -69.17737 38029 ft 439 kts 270°
2026-04-29 12:31 32.27832 -69.24941 38029 ft 438 kts 270°
2026-04-29 12:32 32.27245 -69.32091 38030 ft 437 kts 270°
2026-04-29 12:32 32.26656 -69.39220 38030 ft 438 kts 269°
2026-04-29 12:33 32.26059 -69.46391 38032 ft 438 kts 269°
2026-04-29 12:33 32.25460 -69.53512 38031 ft 437 kts 269°
2026-04-29 12:34 32.24854 -69.60709 38031 ft 437 kts 269°
2026-04-29 12:34 32.24249 -69.67824 38044 ft 437 kts 268°
2026-04-29 12:35 32.23637 -69.74961 38037 ft 437 kts 269°
2026-04-29 12:35 32.23021 -69.82107 38039 ft 440 kts 268°
2026-04-29 12:36 32.22398 -69.89287 38039 ft 438 kts 268°
2026-04-29 12:36 32.21772 -69.96466 38044 ft 440 kts 268°
2026-04-29 12:37 32.21139 -70.03671 38040 ft 439 kts 268°
2026-04-29 12:37 32.20506 -70.10815 38044 ft 440 kts 268°
2026-04-29 12:38 32.19859 -70.18070 38045 ft 440 kts 268°
2026-04-29 12:38 32.19220 -70.25211 38052 ft 439 kts 268°
2026-04-29 12:39 32.18570 -70.32405 38050 ft 439 kts 269°
2026-04-29 12:39 32.17923 -70.39541 38054 ft 440 kts 268°
2026-04-29 12:40 32.17266 -70.46730 38058 ft 442 kts 269°
2026-04-29 12:40 32.16602 -70.53961 38058 ft 444 kts 268°
2026-04-29 12:41 32.15931 -70.61186 38053 ft 439 kts 269°
2026-04-29 12:41 32.15263 -70.68372 38072 ft 441 kts 268°
2026-04-29 12:42 32.14585 -70.75603 38068 ft 443 kts 268°
2026-04-29 12:42 32.13911 -70.82774 38072 ft 442 kts 268°
2026-04-29 12:43 32.13226 -70.89984 38073 ft 442 kts 268°
2026-04-29 12:43 32.12535 -70.97215 38065 ft 441 kts 268°
2026-04-29 12:44 32.11845 -71.04408 38071 ft 442 kts 268°
2026-04-29 12:44 32.11147 -71.11639 38064 ft 443 kts 269°
2026-04-29 12:45 32.10446 -71.18850 38069 ft 443 kts 268°
2026-04-29 12:45 32.09742 -71.26060 38070 ft 443 kts 268°
2026-04-29 12:46 32.09027 -71.33318 38064 ft 443 kts 269°
2026-04-29 12:46 32.08315 -71.40511 38066 ft 440 kts 269°
2026-04-29 12:47 32.07601 -71.47701 38075 ft 443 kts 268°
2026-04-29 12:47 32.06882 -71.54874 38073 ft 443 kts 269°
2026-04-29 12:48 32.06170 -71.61954 38074 ft 442 kts 269°
2026-04-29 12:48 32.05445 -71.69100 38078 ft 439 kts 268°
2026-04-29 12:49 32.04718 -71.76251 38081 ft 442 kts 268°
2026-04-29 12:49 32.03934 -71.83447 38075 ft 439 kts 268°
2026-04-29 12:50 32.03138 -71.90597 38079 ft 442 kts 268°
2026-04-29 12:50 32.02332 -71.97774 38074 ft 440 kts 268°
2026-04-29 12:51 32.01526 -72.04934 38077 ft 442 kts 268°
2026-04-29 12:51 32.00712 -72.12112 38077 ft 441 kts 268°
2026-04-29 12:52 31.99896 -72.19278 38086 ft 441 kts 268°
2026-04-29 12:52 31.99074 -72.26459 38079 ft 441 kts 268°
2026-04-29 12:53 31.98254 -72.33595 38074 ft 440 kts 268°
2026-04-29 12:53 31.97422 -72.40794 38077 ft 442 kts 268°
2026-04-29 12:54 31.96594 -72.47921 38074 ft 439 kts 268°
2026-04-29 12:54 31.95756 -72.55096 38078 ft 440 kts 268°
2026-04-29 12:55 31.94920 -72.62234 38077 ft 441 kts 268°
2026-04-29 12:55 31.94077 -72.69375 38090 ft 442 kts 268°
2026-04-29 12:56 31.93225 -72.76566 38082 ft 440 kts 267°
2026-04-29 12:56 31.92374 -72.83700 38083 ft 440 kts 268°
2026-04-29 12:57 31.91524 -72.90803 38074 ft 438 kts 267°
2026-04-29 12:57 31.90665 -72.97955 38082 ft 440 kts 268°
2026-04-29 12:58 31.89799 -73.05115 38073 ft 440 kts 268°
2026-04-29 12:58 31.88934 -73.12251 38060 ft 440 kts 267°
2026-04-29 12:59 31.88065 -73.19366 38060 ft 441 kts 267°
2026-04-29 12:59 31.87190 -73.26504 38060 ft 440 kts 267°
2026-04-29 13:00 31.86305 -73.33692 38067 ft 443 kts 267°
2026-04-29 13:00 31.85423 -73.40816 38059 ft 441 kts 267°
2026-04-29 13:01 31.84530 -73.47995 38062 ft 440 kts 267°
2026-04-29 13:01 31.83639 -73.55135 38060 ft 442 kts 267°
2026-04-29 13:02 31.82740 -73.62299 38055 ft 442 kts 267°
2026-04-29 13:02 31.81835 -73.69477 38057 ft 445 kts 266°
2026-04-29 13:03 31.80926 -73.76647 38069 ft 442 kts 266°
2026-04-29 13:03 31.79370 -73.83669 38067 ft 453 kts 251°
2026-04-29 13:04 31.75898 -73.90010 38066 ft 465 kts 237°
2026-04-29 13:04 31.71834 -73.95954 38063 ft 468 kts 237°
2026-04-29 13:05 31.67726 -74.01874 38056 ft 464 kts 236°
2026-04-29 13:05 31.63608 -74.07767 38060 ft 466 kts 236°
2026-04-29 13:06 31.59499 -74.13622 38051 ft 467 kts 236°
2026-04-29 13:06 31.55328 -74.19550 38063 ft 470 kts 236°
2026-04-29 13:07 31.51192 -74.25417 38059 ft 468 kts 236°
2026-04-29 13:07 31.46998 -74.31358 38063 ft 470 kts 236°
2026-04-29 13:08 31.42823 -74.37260 38078 ft 469 kts 236°
2026-04-29 13:08 31.38658 -74.43143 38075 ft 468 kts 236°
2026-04-29 13:09 31.34489 -74.49020 38070 ft 468 kts 236°
2026-04-29 13:09 31.30326 -74.54878 38073 ft 468 kts 236°
2026-04-29 13:10 31.26130 -74.60777 38090 ft 471 kts 236°
2026-04-29 13:10 31.21945 -74.66647 38065 ft 469 kts 236°
2026-04-29 13:11 31.17742 -74.72537 38086 ft 471 kts 235°
2026-04-29 13:11 31.13521 -74.78442 38077 ft 471 kts 235°
2026-04-29 13:12 31.09294 -74.84347 38097 ft 472 kts 235°
2026-04-29 13:12 31.05097 -74.90199 38074 ft 471 kts 236°
2026-04-29 13:13 31.00884 -74.96069 38074 ft 472 kts 235°
2026-04-29 13:13 30.96646 -75.01960 38086 ft 473 kts 235°
2026-04-29 13:14 30.92402 -75.07851 38094 ft 472 kts 235°
2026-04-29 13:14 30.88148 -75.13750 38083 ft 472 kts 235°
2026-04-29 13:15 30.83904 -75.19625 38083 ft 473 kts 235°
2026-04-29 13:15 30.79669 -75.25476 38072 ft 470 kts 235°
2026-04-29 13:16 30.75410 -75.31355 38077 ft 474 kts 234°
2026-04-29 13:16 30.71158 -75.37214 38086 ft 474 kts 234°
2026-04-29 13:17 30.66895 -75.43080 38097 ft 474 kts 234°
2026-04-29 13:17 30.62651 -75.48909 38083 ft 473 kts 234°
2026-04-29 13:18 30.58377 -75.54773 38089 ft 474 kts 234°
2026-04-29 13:18 30.54085 -75.60652 38085 ft 474 kts 234°
2026-04-29 13:19 30.49831 -75.66469 38091 ft 475 kts 233°
2026-04-29 13:19 30.45540 -75.72330 38088 ft 477 kts 233°
2026-04-29 13:20 30.41221 -75.78220 38086 ft 477 kts 233°
2026-04-29 13:20 30.36906 -75.84096 38089 ft 477 kts 233°
2026-04-29 13:21 30.32602 -75.89947 38100 ft 477 kts 232°
2026-04-29 13:21 30.28298 -75.95789 38084 ft 476 kts 232°
2026-04-29 13:22 30.23967 -76.01658 38085 ft 479 kts 232°
2026-04-29 13:22 30.19618 -76.07544 38090 ft 478 kts 232°
2026-04-29 13:23 30.15282 -76.13406 38086 ft 479 kts 232°
2026-04-29 13:23 30.10938 -76.19267 38096 ft 480 kts 232°
2026-04-29 13:24 30.06602 -76.25109 38085 ft 477 kts 232°
2026-04-29 13:24 30.02241 -76.30978 38097 ft 478 kts 232°
2026-04-29 13:25 29.97884 -76.36832 38093 ft 480 kts 232°
2026-04-29 13:25 29.91362 -76.45577 38093 ft 481 kts 232°
2026-04-29 13:26 29.86983 -76.51439 38088 ft 481 kts 232°
2026-04-29 13:26 29.82616 -76.57276 38087 ft 480 kts 232°
2026-04-29 13:27 29.78212 -76.63154 38088 ft 481 kts 232°
2026-04-29 13:27 29.73846 -76.68972 38089 ft 481 kts 231°
2026-04-29 13:28 29.69472 -76.74793 38092 ft 482 kts 231°
2026-04-29 13:28 29.65071 -76.80643 38090 ft 481 kts 232°
2026-04-29 13:29 29.61489 -76.87130 38101 ft 478 kts 249°
2026-04-29 13:29 29.59855 -76.94430 38096 ft 471 kts 264°
2026-04-29 13:30 29.58952 -77.01900 38088 ft 470 kts 264°
2026-04-29 13:30 29.58056 -77.09398 38089 ft 470 kts 264°
2026-04-29 13:31 29.57168 -77.16869 38089 ft 471 kts 265°
2026-04-29 13:31 29.56286 -77.24280 38091 ft 470 kts 265°
2026-04-29 13:32 29.55397 -77.31743 38097 ft 470 kts 265°
2026-04-29 13:32 29.54504 -77.39195 38092 ft 469 kts 265°
2026-04-29 13:33 29.53609 -77.46632 38094 ft 469 kts 265°
2026-04-29 13:33 29.52713 -77.54037 38087 ft 469 kts 265°
2026-04-29 13:34 29.51810 -77.61475 38088 ft 469 kts 265°
2026-04-29 13:34 29.50905 -77.68893 38092 ft 468 kts 264°
2026-04-29 13:35 29.49996 -77.76298 38093 ft 468 kts 264°
2026-04-29 13:35 29.49084 -77.83701 38086 ft 467 kts 264°
2026-04-29 13:36 29.48170 -77.91080 38090 ft 467 kts 264°
2026-04-29 13:36 29.47253 -77.98450 38089 ft 466 kts 264°
2026-04-29 13:37 29.46328 -78.05845 38084 ft 465 kts 264°
2026-04-29 13:37 29.45410 -78.13159 38088 ft 465 kts 264°
2026-04-29 13:38 29.44484 -78.20498 38086 ft 464 kts 264°
2026-04-29 13:38 29.43556 -78.27827 38085 ft 465 kts 264°
2026-04-29 13:39 29.42623 -78.35159 38089 ft 463 kts 264°
2026-04-29 13:39 29.41685 -78.42496 38084 ft 463 kts 264°
2026-04-29 13:40 29.40746 -78.49809 38084 ft 462 kts 264°
2026-04-29 13:40 29.39497 -78.57012 38095 ft 466 kts 255°
2026-04-29 13:41 29.37409 -78.64139 38090 ft 467 kts 255°
2026-04-29 13:41 29.35305 -78.71185 38088 ft 467 kts 254°
2026-04-29 13:42 29.33154 -78.78289 38090 ft 466 kts 254°
2026-04-29 13:42 29.31027 -78.85285 38091 ft 466 kts 254°
2026-04-29 13:43 29.28883 -78.92334 38091 ft 466 kts 254°
2026-04-29 13:43 29.26744 -78.99418 38091 ft 465 kts 254°
2026-04-29 13:44 29.24617 -79.06450 38094 ft 465 kts 254°
2026-04-29 13:44 29.22639 -79.13506 38089 ft 461 kts 257°
2026-04-29 13:45 29.20547 -79.20473 38091 ft 464 kts 253°
2026-04-29 13:45 29.18339 -79.27425 38091 ft 462 kts 253°
2026-04-29 13:46 29.16193 -79.34314 38091 ft 463 kts 254°
2026-04-29 13:46 29.14094 -79.41273 38084 ft 461 kts 255°
2026-04-29 13:47 29.12000 -79.48203 38090 ft 463 kts 255°
2026-04-29 13:47 29.09890 -79.55166 38089 ft 460 kts 254°
2026-04-29 13:48 29.07995 -79.62143 38084 ft 457 kts 257°
2026-04-29 13:48 29.06174 -79.69124 38087 ft 459 kts 256°
2026-04-29 13:49 29.04338 -79.76135 38099 ft 458 kts 256°
2026-04-29 13:49 29.02519 -79.83061 38102 ft 455 kts 256°
2026-04-29 13:50 29.00697 -79.89980 38099 ft 454 kts 256°
2026-04-29 13:50 28.98871 -79.96905 38084 ft 453 kts 256°
2026-04-29 13:51 28.97041 -80.03822 38100 ft 455 kts 256°
2026-04-29 13:51 28.95208 -80.10730 38095 ft 455 kts 256°
2026-04-29 13:52 28.93377 -80.17620 38078 ft 453 kts 257°
2026-04-29 13:52 28.91538 -80.24532 38088 ft 455 kts 256°
2026-04-29 13:53 28.89693 -80.31439 38090 ft 453 kts 256°
2026-04-29 13:53 28.87855 -80.38309 38086 ft 454 kts 256°
2026-04-29 13:54 28.86010 -80.45187 38081 ft 454 kts 256°
2026-04-29 13:54 28.84159 -80.52074 38068 ft 454 kts 256°
2026-04-29 13:55 28.82293 -80.59002 38083 ft 453 kts 257°
2026-04-29 13:55 28.80434 -80.65890 38075 ft 454 kts 256°
2026-04-29 13:56 28.78566 -80.72793 38081 ft 454 kts 256°
2026-04-29 13:56 28.76694 -80.79697 38096 ft 454 kts 256°
2026-04-29 13:57 28.75771 -80.83097 37868 ft 459 kts 256°
2026-04-29 13:57 28.74809 -80.86643 36973 ft 463 kts 255°
2026-04-29 13:57 28.73855 -80.90141 36108 ft 458 kts 255°
2026-04-29 13:57 28.73231 -80.92432 35548 ft 454 kts 255°
2026-04-29 13:58 28.71990 -80.96986 34419 ft 454 kts 255°
2026-04-29 13:58 28.71054 -81.00414 33584 ft 461 kts 254°
2026-04-29 13:58 28.69937 -81.03886 32781 ft 468 kts 248°
2026-04-29 13:58 28.68634 -81.07220 32001 ft 463 kts 247°
2026-04-29 13:59 28.67358 -81.10565 31235 ft 459 kts 248°
2026-04-29 13:59 28.66109 -81.13876 30474 ft 455 kts 248°
2026-04-29 13:59 28.64878 -81.17163 29717 ft 447 kts 248°
2026-04-29 13:59 28.63680 -81.20373 28954 ft 439 kts 248°
2026-04-29 14:00 28.62497 -81.23550 28201 ft 439 kts 248°
2026-04-29 14:00 28.61307 -81.26755 27459 ft 442 kts 248°
2026-04-29 14:00 28.60110 -81.29978 26702 ft 439 kts 249°
2026-04-29 14:00 28.58934 -81.33146 25962 ft 433 kts 249°
2026-04-29 14:01 28.57775 -81.36267 25214 ft 427 kts 249°
2026-04-29 14:01 28.56628 -81.39356 24464 ft 423 kts 249°
2026-04-29 14:01 28.55489 -81.42420 23714 ft 420 kts 249°
2026-04-29 14:01 28.54365 -81.45441 22977 ft 416 kts 249°
2026-04-29 14:02 28.53245 -81.48449 22241 ft 411 kts 250°
2026-04-29 14:02 28.52150 -81.51389 21520 ft 407 kts 250°
2026-04-29 14:02 28.51050 -81.54336 20784 ft 401 kts 251°
2026-04-29 14:02 28.49973 -81.57222 20060 ft 398 kts 250°
2026-04-29 14:03 28.48897 -81.60107 19329 ft 395 kts 251°
2026-04-29 14:03 28.47830 -81.62961 18598 ft 390 kts 251°
2026-04-29 14:03 28.46773 -81.65787 17857 ft 386 kts 251°
2026-04-29 14:03 28.45737 -81.68557 17240 ft 380 kts 251°
2026-04-29 14:04 28.44713 -81.71291 16712 ft 376 kts 251°
2026-04-29 14:04 28.43696 -81.74008 16158 ft 375 kts 251°
2026-04-29 14:04 28.42682 -81.76711 15617 ft 372 kts 251°
2026-04-29 14:04 28.41672 -81.79406 15073 ft 368 kts 251°